Time,TemperatureF,DewpointF,PressureIn,WindDirection,WindDirectionDegrees,WindSpeedMPH,WindSpeedGustMPH,Humidity,HourlyPrecipIn,Conditions,Clouds,dailyrainin,SolarRadiationWatts/m^2,SoftwareType,DateUTC
2013-06-21 00:02:00,80.4,52.5,29.71,WNW,283,3.0,4.0,38,0.00,,,0.00,1,WeatherHawk,2013-06-21 07:02:00,
2013-06-21 00:04:00,80.4,51.7,29.71,West,273,2.0,4.0,37,0.00,,,0.00,0,WeatherHawk,2013-06-21 07:04:00,
2013-06-21 00:07:00,80.4,51.0,29.71,ESE,107,2.0,4.0,36,0.00,,,0.00,0,WeatherHawk,2013-06-21 07:07:00,
2013-06-21 00:09:00,81.0,51.5,29.71,SSE,153,2.0,3.0,36,0.00,,,0.00,0,WeatherHawk,2013-06-21 07:09:00,
2013-06-21 00:12:00,81.1,50.9,29.71,SSE,162,3.0,3.0,35,0.00,,,0.00,0,WeatherHawk,2013-06-21 07:12:00,
2013-06-21 08:28:00,81.3,51.8,29.71,SE,143,5.0,0.0,36,0.00,,,0.00,0,WeatherHawk,2013-06-21 15:28:00,
2013-06-21 08:33:00,81.3,51.8,29.71,SE,143,5.0,0.0,36,0.00,,,0.00,0,WeatherHawk,2013-06-21 15:33:00,
2013-06-21 08:38:00,81.3,51.8,29.71,SE,143,5.0,0.0,36,0.00,,,0.00,0,WeatherHawk,2013-06-21 15:38:00,
2013-06-21 08:43:00,81.3,51.8,29.71,SE,143,5.0,0.0,36,0.00,,,0.00,0,WeatherHawk,2013-06-21 15:43:00,
2013-06-21 08:48:00,81.3,51.8,29.71,SE,143,5.0,0.0,36,0.00,,,0.00,0,WeatherHawk,2013-06-21 15:48:00,
2013-06-21 08:51:00,83.3,55.0,29.78,SE,140,9.0,0.0,38,0.00,,,0.00,570,WeatherHawk,2013-06-21 15:51:00,
2013-06-21 08:53:00,83.3,55.0,29.78,SE,140,9.0,0.0,38,0.00,,,0.00,570,WeatherHawk,2013-06-21 15:53:00,
2013-06-21 08:54:00,83.7,55.3,29.78,SE,133,6.0,-999.0,38,0.00,,,0.00,566,WeatherHawk,2013-06-21 15:54:00,
2013-06-21 08:57:00,84.0,55.6,29.78,SE,143,4.0,0.0,38,0.00,,,0.00,588,WeatherHawk,2013-06-21 15:57:00,
2013-06-21 08:58:00,84.2,55.8,29.78,SSE,168,4.0,0.0,38,0.00,,,0.00,508,WeatherHawk,2013-06-21 15:58:00,
2013-06-21 09:00:00,84.4,55.2,29.78,SSE,152,6.0,0.0,37,0.00,,,0.00,480,WeatherHawk,2013-06-21 16:00:00,
2013-06-21 09:03:00,84.2,55.8,29.78,SSE,162,5.0,0.0,38,0.00,,,0.00,541,WeatherHawk,2013-06-21 16:03:00,
2013-06-21 09:04:00,84.4,54.5,29.78,SSE,163,7.0,0.0,36,0.00,,,0.00,695,WeatherHawk,2013-06-21 16:04:00,
2013-06-21 09:08:00,84.4,55.2,29.78,SSE,168,6.0,0.0,37,0.00,,,0.00,671,WeatherHawk,2013-06-21 16:08:00,
2013-06-21 09:13:00,84.7,55.5,29.78,ESE,119,7.0,0.0,37,0.00,,,0.00,669,WeatherHawk,2013-06-21 16:13:00,
2013-06-21 09:14:00,85.3,55.3,29.78,ESE,121,6.0,0.0,36,0.00,,,0.00,751,WeatherHawk,2013-06-21 16:14:00,
2013-06-21 09:16:00,85.1,55.1,29.78,ESE,113,7.0,0.0,36,0.00,,,0.00,711,WeatherHawk,2013-06-21 16:16:00,
2013-06-21 09:19:00,85.5,54.7,29.78,ESE,116,4.0,0.0,35,0.00,,,0.00,693,WeatherHawk,2013-06-21 16:19:00,
2013-06-21 09:20:00,85.5,54.7,29.78,SSE,151,7.0,0.0,35,0.00,,,0.00,749,WeatherHawk,2013-06-21 16:20:00,
2013-06-21 09:23:00,85.6,54.8,29.78,SSE,149,6.0,0.0,35,0.00,,,0.00,709,WeatherHawk,2013-06-21 16:23:00,
2013-06-21 09:25:00,85.5,53.9,29.78,ESE,119,4.0,0.0,34,0.00,,,0.00,841,WeatherHawk,2013-06-21 16:25:00,
2013-06-21 09:26:00,85.6,54.0,29.78,ESE,121,8.0,0.0,34,0.00,,,0.00,839,WeatherHawk,2013-06-21 16:26:00,
2013-06-21 09:28:00,85.6,54.0,29.78,SE,127,6.0,0.0,34,0.00,,,0.00,823,WeatherHawk,2013-06-21 16:28:00,
2013-06-21 09:30:00,85.6,53.2,29.78,South,179,6.0,0.0,33,0.00,,,0.00,819,WeatherHawk,2013-06-21 16:30:00,
2013-06-21 09:31:00,86.0,53.5,29.78,SE,129,6.0,0.0,33,0.00,,,0.00,790,WeatherHawk,2013-06-21 16:31:00,
2013-06-21 09:32:00,86.0,52.7,29.78,ESE,108,4.0,0.0,32,0.00,,,0.00,731,WeatherHawk,2013-06-21 16:32:00,
2013-06-21 09:33:00,86.0,52.7,29.78,ESE,108,4.0,0.0,32,0.00,,,0.00,731,WeatherHawk,2013-06-21 16:33:00,
2013-06-21 09:35:00,86.5,53.1,29.78,SSE,153,9.0,0.0,32,0.00,,,0.00,602,WeatherHawk,2013-06-21 16:35:00,
2013-06-21 09:38:00,86.0,52.7,29.78,SSE,160,4.0,0.0,32,0.00,,,0.00,741,WeatherHawk,2013-06-21 16:38:00,
2013-06-21 09:42:00,86.9,52.6,29.78,ESE,122,8.0,0.0,31,0.00,,,0.00,675,WeatherHawk,2013-06-21 16:42:00,
2013-06-21 09:43:00,86.9,52.6,29.78,ESE,122,8.0,0.0,31,0.00,,,0.00,675,WeatherHawk,2013-06-21 16:43:00,
2013-06-21 09:48:00,86.9,53.5,29.78,East,95,5.0,0.0,32,0.00,,,0.00,716,WeatherHawk,2013-06-21 16:48:00,
2013-06-21 09:52:00,87.1,53.6,29.78,South,185,6.0,0.0,32,0.00,,,0.00,731,WeatherHawk,2013-06-21 16:52:00,
2013-06-21 09:53:00,87.1,53.6,29.78,South,185,6.0,0.0,32,0.00,,,0.00,731,WeatherHawk,2013-06-21 16:53:00,
2013-06-21 09:54:00,87.1,54.4,29.78,SSE,167,8.0,0.0,33,0.00,,,0.00,973,WeatherHawk,2013-06-21 16:54:00,
2013-06-21 09:58:00,87.8,55.1,29.78,South,185,4.0,0.0,33,0.00,,,0.00,940,WeatherHawk,2013-06-21 16:58:00,
2013-06-21 10:03:00,88.3,55.5,29.78,SSE,159,3.0,0.0,33,0.00,,,0.00,1014,WeatherHawk,2013-06-21 17:03:00,
2013-06-21 10:04:00,88.5,54.0,29.78,SSE,155,11.0,0.0,31,0.00,,,0.00,1052,WeatherHawk,2013-06-21 17:04:00,
2013-06-21 10:08:00,89.2,52.8,29.78,SE,128,12.0,-999.0,29,0.00,,,0.00,783,WeatherHawk,2013-06-21 17:08:00,
2013-06-21 10:10:00,88.7,52.3,29.78,ESE,120,8.0,0.0,29,0.00,,,0.00,1070,WeatherHawk,2013-06-21 17:10:00,
2013-06-21 10:11:00,88.3,51.1,29.78,SSE,167,6.0,0.0,28,0.00,,,0.00,619,WeatherHawk,2013-06-21 17:11:00,
2013-06-21 10:13:00,88.3,51.1,29.78,SE,145,4.0,-999.0,28,0.00,,,0.00,694,WeatherHawk,2013-06-21 17:13:00,
2013-06-21 10:15:00,88.9,50.5,29.78,SE,138,10.0,0.0,27,0.00,,,0.00,1091,WeatherHawk,2013-06-21 17:15:00,
2013-06-21 10:17:00,89.2,49.8,29.78,SE,138,5.0,0.0,26,0.00,,,0.00,942,WeatherHawk,2013-06-21 17:17:00,
2013-06-21 10:18:00,89.2,49.8,29.78,SE,138,5.0,-999.0,26,0.00,,,0.00,942,WeatherHawk,2013-06-21 17:18:00,
2013-06-21 10:22:00,89.2,49.8,29.78,South,178,4.0,0.0,26,0.00,,,0.00,944,WeatherHawk,2013-06-21 17:22:00,
2013-06-21 10:23:00,89.2,49.8,29.78,South,178,4.0,0.0,26,0.00,,,0.00,944,WeatherHawk,2013-06-21 17:23:00,
2013-06-21 10:26:00,90.0,49.4,29.78,ESE,110,10.0,0.0,25,0.00,,,0.00,1189,WeatherHawk,2013-06-21 17:26:00,
2013-06-21 10:28:00,90.3,49.7,29.78,SSE,150,9.0,0.0,25,0.00,,,0.00,1155,WeatherHawk,2013-06-21 17:28:00,
2013-06-21 10:31:00,90.1,48.4,29.78,ESE,106,8.0,0.0,24,0.00,,,0.00,911,WeatherHawk,2013-06-21 17:31:00,
2013-06-21 10:33:00,90.1,48.4,29.78,ESE,106,8.0,-999.0,24,0.00,,,0.00,911,WeatherHawk,2013-06-21 17:33:00,
2013-06-21 10:35:00,89.8,50.3,29.78,ESE,102,7.0,0.0,26,0.00,,,0.00,729,WeatherHawk,2013-06-21 17:35:00,
2013-06-21 10:37:00,89.6,50.1,29.78,ESE,113,7.0,0.0,26,0.00,,,0.00,857,WeatherHawk,2013-06-21 17:37:00,
2013-06-21 10:43:00,90.1,50.6,29.78,East,95,3.0,-999.0,26,0.00,,,0.00,655,WeatherHawk,2013-06-21 17:43:00,
2013-06-21 10:45:00,90.5,48.7,29.78,ESE,121,9.0,0.0,24,0.00,,,0.00,942,WeatherHawk,2013-06-21 17:45:00,
2013-06-21 10:48:00,90.5,48.7,29.78,ESE,108,6.0,0.0,24,0.00,,,0.00,1038,WeatherHawk,2013-06-21 17:48:00,
2013-06-21 10:53:00,90.3,48.6,29.78,South,185,4.0,0.0,24,0.00,,,0.00,745,WeatherHawk,2013-06-21 17:53:00,
2013-06-21 10:56:00,90.9,50.1,29.78,East,97,7.0,0.0,25,0.00,,,0.00,519,WeatherHawk,2013-06-21 17:56:00,
2013-06-21 10:58:00,90.9,50.1,29.78,SE,135,2.0,-999.0,25,0.00,,,0.00,820,WeatherHawk,2013-06-21 17:58:00,
2013-06-21 11:03:00,91.0,49.2,29.78,ENE,77,4.0,0.0,24,0.00,,,0.00,1053,WeatherHawk,2013-06-21 18:03:00,
2013-06-21 11:05:00,91.6,48.5,29.78,SE,128,6.0,0.0,23,0.00,,,0.00,1090,WeatherHawk,2013-06-21 18:05:00,
2013-06-21 11:06:00,91.9,46.4,29.78,SSE,160,7.0,0.0,21,0.00,,,0.00,975,WeatherHawk,2013-06-21 18:06:00,
2013-06-21 11:08:00,91.9,46.4,29.78,SSE,160,7.0,0.0,21,0.00,,,0.00,975,WeatherHawk,2013-06-21 18:08:00,
2013-06-21 11:16:00,91.6,48.5,29.78,ESE,112,4.0,0.0,23,0.00,,,0.00,871,WeatherHawk,2013-06-21 18:16:00,
2013-06-21 11:17:00,91.6,48.5,29.78,ESE,110,4.0,0.0,23,0.00,,,0.00,894,WeatherHawk,2013-06-21 18:17:00,
2013-06-21 11:18:00,91.6,48.5,29.78,ESE,110,4.0,0.0,23,0.00,,,0.00,894,WeatherHawk,2013-06-21 18:18:00,
2013-06-21 11:20:00,92.3,47.9,29.78,SE,134,4.0,0.0,22,0.00,,,0.00,1076,WeatherHawk,2013-06-21 18:20:00,
2013-06-21 11:21:00,92.5,46.8,29.78,SE,125,11.0,0.0,21,0.00,,,0.00,1081,WeatherHawk,2013-06-21 18:21:00,
2013-06-21 11:23:00,93.6,46.4,29.78,SE,132,8.0,-999.0,20,0.00,,,0.00,1096,WeatherHawk,2013-06-21 18:23:00,
2013-06-21 11:24:00,93.4,46.3,29.78,ESE,114,8.0,0.0,20,0.00,,,0.00,1105,WeatherHawk,2013-06-21 18:24:00,
2013-06-21 11:26:00,92.7,45.7,29.78,SSE,161,7.0,0.0,20,0.00,,,0.00,1060,WeatherHawk,2013-06-21 18:26:00,
2013-06-21 11:28:00,92.7,45.7,29.78,SSE,153,10.0,0.0,20,0.00,,,0.00,1054,WeatherHawk,2013-06-21 18:28:00,
2013-06-21 11:31:00,92.8,45.8,29.78,SSE,151,9.0,0.0,20,0.00,,,0.00,1028,WeatherHawk,2013-06-21 18:31:00,
2013-06-21 11:33:00,92.5,45.5,29.78,ESE,119,6.0,0.0,20,0.00,,,0.00,1004,WeatherHawk,2013-06-21 18:33:00,
2013-06-21 11:38:00,92.8,45.8,29.77,East,92,8.0,0.0,20,0.00,,,0.00,1090,WeatherHawk,2013-06-21 18:38:00,
2013-06-21 11:41:00,93.2,46.1,29.77,SSW,193,7.0,0.0,20,0.00,,,0.00,886,WeatherHawk,2013-06-21 18:41:00,
2013-06-21 11:43:00,92.8,45.8,29.77,South,183,6.0,0.0,20,0.00,,,0.00,932,WeatherHawk,2013-06-21 18:43:00,
2013-06-21 11:45:00,93.2,46.1,29.77,SE,136,8.0,0.0,20,0.00,,,0.00,1056,WeatherHawk,2013-06-21 18:45:00,
2013-06-21 11:48:00,93.0,41.7,29.77,SE,143,12.0,-999.0,17,0.00,,,0.00,1051,WeatherHawk,2013-06-21 18:48:00,
2013-06-21 11:52:00,94.1,44.1,29.77,SE,139,6.0,0.0,18,0.00,,,0.00,1127,WeatherHawk,2013-06-21 18:52:00,
2013-06-21 11:53:00,94.1,44.1,29.77,SE,139,6.0,0.0,18,0.00,,,0.00,1127,WeatherHawk,2013-06-21 18:53:00,
2013-06-21 11:57:00,93.6,43.6,29.77,SE,124,7.0,-999.0,18,0.00,,,0.00,1159,WeatherHawk,2013-06-21 18:57:00,
2013-06-21 11:58:00,93.6,43.6,29.77,SE,124,7.0,0.0,18,0.00,,,0.00,1159,WeatherHawk,2013-06-21 18:58:00,
2013-06-21 12:02:00,93.6,43.6,29.77,ENE,76,4.0,0.0,18,0.00,,,0.00,1022,WeatherHawk,2013-06-21 19:02:00,
2013-06-21 12:04:00,93.6,45.1,29.77,SSE,161,6.0,0.0,19,0.00,,,0.00,1061,WeatherHawk,2013-06-21 19:04:00,
2013-06-21 12:07:00,94.3,45.6,29.76,East,88,9.0,0.0,19,0.00,,,0.00,1110,WeatherHawk,2013-06-21 19:07:00,
2013-06-21 12:12:00,94.1,44.1,29.77,SSE,158,6.0,0.0,18,0.00,,,0.00,1059,WeatherHawk,2013-06-21 19:12:00,
2013-06-21 12:13:00,94.3,42.7,29.76,SSW,203,4.0,0.0,17,0.00,,,0.00,1169,WeatherHawk,2013-06-21 19:13:00,
2013-06-21 12:21:00,94.6,41.4,29.76,East,100,2.0,0.0,16,0.00,,,0.00,1202,WeatherHawk,2013-06-21 19:21:00,
2013-06-21 12:22:00,95.0,43.3,29.76,SW,217,9.0,0.0,17,0.00,,,0.00,1172,WeatherHawk,2013-06-21 19:22:00,
2013-06-21 12:27:00,95.4,45.1,29.76,SSW,206,10.0,0.0,18,0.00,,,0.00,1172,WeatherHawk,2013-06-21 19:27:00,
2013-06-21 12:28:00,95.0,44.8,29.76,SW,220,10.0,0.0,18,0.00,,,0.00,1172,WeatherHawk,2013-06-21 19:28:00,
2013-06-21 12:32:00,95.0,44.8,29.76,South,185,8.0,0.0,18,0.00,,,0.00,1156,WeatherHawk,2013-06-21 19:32:00,
2013-06-21 12:36:00,95.4,45.1,29.76,SSW,198,11.0,0.0,18,0.00,,,0.00,1146,WeatherHawk,2013-06-21 19:36:00,
2013-06-21 12:40:00,95.4,45.1,29.76,SW,226,5.0,0.0,18,0.00,,,0.00,1140,WeatherHawk,2013-06-21 19:40:00,
2013-06-21 12:42:00,95.5,45.2,29.76,SSE,149,8.0,0.0,18,0.00,,,0.00,1138,WeatherHawk,2013-06-21 19:42:00,
2013-06-21 12:44:00,95.2,44.9,29.76,SW,216,5.0,0.0,18,0.00,,,0.00,1131,WeatherHawk,2013-06-21 19:44:00,
2013-06-21 12:47:00,95.4,43.6,29.76,SSW,209,2.0,0.0,17,0.00,,,0.00,1135,WeatherHawk,2013-06-21 19:47:00,
2013-06-21 12:50:00,96.1,44.2,29.76,ENE,70,2.0,0.0,17,0.00,,,0.00,1129,WeatherHawk,2013-06-21 19:50:00,
2013-06-21 12:51:00,96.1,44.2,29.76,NNW,330,1.0,0.0,17,0.00,,,0.00,1125,WeatherHawk,2013-06-21 19:51:00,
2013-06-21 12:53:00,96.6,44.6,29.76,ESE,121,8.0,0.0,17,0.00,,,0.00,1125,WeatherHawk,2013-06-21 19:53:00,
2013-06-21 12:56:00,96.1,45.7,29.75,SE,144,9.0,0.0,18,0.00,,,0.00,1126,WeatherHawk,2013-06-21 19:56:00,
2013-06-21 12:57:00,96.1,45.7,29.75,SE,144,9.0,0.0,18,0.00,,,0.00,1126,WeatherHawk,2013-06-21 19:57:00,
2013-06-21 12:59:00,96.1,45.7,29.75,South,169,8.0,0.0,18,0.00,,,0.00,1121,WeatherHawk,2013-06-21 19:59:00,
2013-06-21 13:02:00,96.1,45.7,29.75,SSE,154,9.0,0.0,18,0.00,,,0.00,1117,WeatherHawk,2013-06-21 20:02:00,
2013-06-21 13:03:00,95.4,42.0,29.75,SE,127,5.0,0.0,16,0.00,,,0.00,1117,WeatherHawk,2013-06-21 20:03:00,
2013-06-21 13:06:00,96.1,45.7,29.75,ESE,123,7.0,0.0,18,0.00,,,0.00,1113,WeatherHawk,2013-06-21 20:06:00,
2013-06-21 13:12:00,95.9,45.5,29.75,ESE,110,4.0,-999.0,18,0.00,,,0.00,1112,WeatherHawk,2013-06-21 20:12:00,
2013-06-21 13:17:00,96.1,47.1,29.74,SSE,167,9.0,-999.0,19,0.00,,,0.00,1101,WeatherHawk,2013-06-21 20:17:00,
2013-06-21 13:18:00,96.1,47.1,29.74,SE,130,9.0,0.0,19,0.00,,,0.00,1098,WeatherHawk,2013-06-21 20:18:00,
2013-06-21 13:20:00,96.8,47.7,29.74,ESE,122,9.0,0.0,19,0.00,,,0.00,1094,WeatherHawk,2013-06-21 20:20:00,
2013-06-21 13:22:00,96.3,47.2,29.74,ESE,112,6.0,0.0,19,0.00,,,0.00,1102,WeatherHawk,2013-06-21 20:22:00,
2013-06-21 13:23:00,96.1,47.1,29.74,SSE,153,5.0,0.0,19,0.00,,,0.00,1077,WeatherHawk,2013-06-21 20:23:00,
2013-06-21 13:27:00,96.4,47.4,29.74,East,86,7.0,0.0,19,0.00,,,0.00,1093,WeatherHawk,2013-06-21 20:27:00,
2013-06-21 13:30:00,97.9,45.6,29.74,South,177,11.0,0.0,17,0.00,,,0.00,1096,WeatherHawk,2013-06-21 20:30:00,
2013-06-21 13:32:00,97.3,45.2,29.74,SE,143,7.0,0.0,17,0.00,,,0.00,1093,WeatherHawk,2013-06-21 20:32:00,
2013-06-21 13:37:00,97.2,45.0,29.74,SE,139,9.0,0.0,17,0.00,,,0.00,1088,WeatherHawk,2013-06-21 20:37:00,
2013-06-21 13:41:00,97.2,45.0,29.73,South,184,9.0,0.0,17,0.00,,,0.00,1087,WeatherHawk,2013-06-21 20:41:00,
2013-06-21 13:42:00,97.2,45.0,29.74,SSW,208,7.0,0.0,17,0.00,,,0.00,1084,WeatherHawk,2013-06-21 20:42:00,
2013-06-21 13:44:00,97.5,45.3,29.73,WSW,237,6.0,0.0,17,0.00,,,0.00,1086,WeatherHawk,2013-06-21 20:44:00,
2013-06-21 13:46:00,97.7,43.9,29.73,SSE,163,5.0,0.0,16,0.00,,,0.00,1077,WeatherHawk,2013-06-21 20:46:00,
2013-06-21 13:52:00,97.7,45.5,29.73,South,173,5.0,0.0,17,0.00,,,0.00,1067,WeatherHawk,2013-06-21 20:52:00,
2013-06-21 13:54:00,97.9,44.0,29.73,SSE,159,6.0,0.0,16,0.00,,,0.00,1058,WeatherHawk,2013-06-21 20:54:00,
2013-06-21 13:55:00,97.9,44.0,29.73,South,172,8.0,0.0,16,0.00,,,0.00,1059,WeatherHawk,2013-06-21 20:55:00,
2013-06-21 14:01:00,98.1,45.8,29.73,South,185,11.0,0.0,17,0.00,,,0.00,1055,WeatherHawk,2013-06-21 21:01:00,
2013-06-21 14:02:00,97.7,45.5,29.73,SSE,149,6.0,0.0,17,0.00,,,0.00,1022,WeatherHawk,2013-06-21 21:02:00,
2013-06-21 14:05:00,97.7,42.2,29.73,South,174,11.0,0.0,15,0.00,,,0.00,1028,WeatherHawk,2013-06-21 21:05:00,
2013-06-21 14:07:00,97.9,40.5,29.72,SSW,198,11.0,0.0,14,0.00,,,0.00,1042,WeatherHawk,2013-06-21 21:07:00,
2013-06-21 14:08:00,98.8,43.0,29.73,SSE,154,4.0,0.0,15,0.00,,,0.00,1046,WeatherHawk,2013-06-21 21:08:00,
2013-06-21 14:12:00,98.8,43.0,29.73,SSE,154,4.0,0.0,15,0.00,,,0.00,1046,WeatherHawk,2013-06-21 21:12:00,
2013-06-21 14:17:00,99.1,39.6,29.72,SW,234,7.0,-999.0,13,0.00,,,0.00,1036,WeatherHawk,2013-06-21 21:17:00,
2013-06-21 14:18:00,99.0,39.5,29.72,SW,227,5.0,0.0,13,0.00,,,0.00,1027,WeatherHawk,2013-06-21 21:18:00,
2013-06-21 14:19:00,99.0,41.4,29.72,South,183,3.0,0.0,14,0.00,,,0.00,1025,WeatherHawk,2013-06-21 21:19:00,
2013-06-21 14:22:00,98.8,41.2,29.72,SW,225,3.0,0.0,14,0.00,,,0.00,1025,WeatherHawk,2013-06-21 21:22:00,
2013-06-21 14:24:00,99.1,45.0,29.72,SSE,162,4.0,0.0,16,0.00,,,0.00,1009,WeatherHawk,2013-06-21 21:24:00,
2013-06-21 14:25:00,99.1,43.3,29.72,South,191,5.0,0.0,15,0.00,,,0.00,1009,WeatherHawk,2013-06-21 21:25:00,
2013-06-21 14:28:00,99.5,43.6,29.72,WSW,248,3.0,0.0,15,0.00,,,0.00,1002,WeatherHawk,2013-06-21 21:28:00,
2013-06-21 14:32:00,100.0,44.0,29.72,SE,140,6.0,0.0,15,0.00,,,0.00,992,WeatherHawk,2013-06-21 21:32:00,
2013-06-21 14:37:00,100.2,42.4,29.71,WNW,282,7.0,0.0,14,0.00,,,0.00,988,WeatherHawk,2013-06-21 21:37:00,
2013-06-21 14:42:00,99.9,40.2,29.71,SW,215,8.0,-999.0,13,0.00,,,0.00,979,WeatherHawk,2013-06-21 21:42:00,
2013-06-21 14:47:00,99.9,40.2,29.71,WSW,251,6.0,0.0,13,0.00,,,0.00,966,WeatherHawk,2013-06-21 21:47:00,
2013-06-21 14:49:00,100.4,38.5,29.71,SSW,211,7.0,0.0,12,0.00,,,0.00,959,WeatherHawk,2013-06-21 21:49:00,
2013-06-21 14:52:00,100.4,38.5,29.71,SSW,211,7.0,-999.0,12,0.00,,,0.00,959,WeatherHawk,2013-06-21 21:52:00,
2013-06-21 14:56:00,100.2,38.4,29.71,SW,219,7.0,0.0,12,0.00,,,0.00,943,WeatherHawk,2013-06-21 21:56:00,
2013-06-21 14:59:00,100.0,38.3,29.70,SW,227,7.0,0.0,12,0.00,,,0.00,939,WeatherHawk,2013-06-21 21:59:00,
2013-06-21 15:02:00,100.0,38.3,29.70,SW,227,7.0,-999.0,12,0.00,,,0.00,939,WeatherHawk,2013-06-21 22:02:00,
2013-06-21 15:06:00,99.7,40.0,29.70,SSE,166,6.0,13.0,13,0.00,,,0.00,914,WeatherHawk,2013-06-21 22:06:00,
2013-06-21 15:07:00,99.5,39.9,29.70,SE,124,4.0,13.0,13,0.00,,,0.00,910,WeatherHawk,2013-06-21 22:07:00,
2013-06-21 15:11:00,100.4,40.6,29.70,WNW,303,1.0,10.0,13,0.00,,,0.00,902,WeatherHawk,2013-06-21 22:11:00,
2013-06-21 15:12:00,100.4,40.6,29.70,WNW,303,1.0,-999.0,13,0.00,,,0.00,902,WeatherHawk,2013-06-21 22:12:00,
2013-06-21 15:13:00,100.6,40.7,29.70,NW,308,2.0,10.0,13,0.00,,,0.00,897,WeatherHawk,2013-06-21 22:13:00,
2013-06-21 15:17:00,100.2,40.5,29.70,ESE,122,2.0,-999.0,13,0.00,,,0.00,886,WeatherHawk,2013-06-21 22:17:00,
2013-06-21 15:18:00,100.6,40.7,29.70,West,271,4.0,0.0,13,0.00,,,0.00,879,WeatherHawk,2013-06-21 22:18:00,
2013-06-21 15:22:00,100.4,40.6,29.70,WSW,237,5.0,6.0,13,0.00,,,0.00,869,WeatherHawk,2013-06-21 22:22:00,
2013-06-21 15:25:00,100.4,40.6,29.69,NW,316,2.0,6.0,13,0.00,,,0.00,862,WeatherHawk,2013-06-21 22:25:00,
2013-06-21 15:27:00,100.8,40.9,29.69,WSW,251,7.0,7.0,13,0.00,,,0.00,858,WeatherHawk,2013-06-21 22:27:00,
2013-06-21 15:31:00,101.1,41.2,29.69,WNW,299,3.0,11.0,13,0.00,,,0.00,844,WeatherHawk,2013-06-21 22:31:00,
2013-06-21 15:32:00,101.1,41.2,29.69,WNW,299,3.0,-999.0,13,0.00,,,0.00,844,WeatherHawk,2013-06-21 22:32:00,
2013-06-21 15:35:00,100.9,41.0,29.69,WSW,249,8.0,11.0,13,0.00,,,0.00,832,WeatherHawk,2013-06-21 22:35:00,
2013-06-21 15:37:00,101.1,41.2,29.69,West,260,7.0,11.0,13,0.00,,,0.00,825,WeatherHawk,2013-06-21 22:37:00,
2013-06-21 15:39:00,101.1,41.2,29.69,WSW,237,5.0,0.0,13,0.00,,,0.00,822,WeatherHawk,2013-06-21 22:39:00,
2013-06-21 15:40:00,101.3,41.3,29.69,WSW,250,8.0,11.0,13,0.00,,,0.00,817,WeatherHawk,2013-06-21 22:40:00,
2013-06-21 15:42:00,101.5,41.4,29.69,SW,226,7.0,-999.0,13,0.00,,,0.00,809,WeatherHawk,2013-06-21 22:42:00,
2013-06-21 15:46:00,100.9,41.0,29.69,WNW,292,5.0,11.0,13,0.00,,,0.00,802,WeatherHawk,2013-06-21 22:46:00,
2013-06-21 15:47:00,100.9,41.0,29.69,WNW,292,5.0,11.0,13,0.00,,,0.00,802,WeatherHawk,2013-06-21 22:47:00,
2013-06-21 15:49:00,100.9,41.0,29.69,West,269,8.0,0.0,13,0.00,,,0.00,793,WeatherHawk,2013-06-21 22:49:00,
2013-06-21 15:50:00,101.1,41.2,29.69,WSW,257,8.0,12.0,13,0.00,,,0.00,786,WeatherHawk,2013-06-21 22:50:00,
2013-06-21 15:54:00,101.1,41.2,29.69,WSW,242,5.0,12.0,13,0.00,,,0.00,777,WeatherHawk,2013-06-21 22:54:00,
2013-06-21 15:55:00,101.1,39.1,29.69,SSW,206,5.0,12.0,12,0.00,,,0.00,772,WeatherHawk,2013-06-21 22:55:00,
2013-06-21 15:57:00,101.1,39.1,29.69,South,183,6.0,12.0,12,0.00,,,0.00,766,WeatherHawk,2013-06-21 22:57:00,
2013-06-21 16:01:00,101.5,39.4,29.69,South,177,6.0,9.0,12,0.00,,,0.00,751,WeatherHawk,2013-06-21 23:01:00,
2013-06-21 16:02:00,101.7,39.5,29.69,SSE,150,4.0,9.0,12,0.00,,,0.00,746,WeatherHawk,2013-06-21 23:02:00,
2013-06-21 16:06:00,101.1,39.1,29.68,ESE,122,4.0,9.0,12,0.00,,,0.00,731,WeatherHawk,2013-06-21 23:06:00,
2013-06-21 16:07:00,100.9,39.0,29.68,ESE,106,3.0,9.0,12,0.00,,,0.00,729,WeatherHawk,2013-06-21 23:07:00,
2013-06-21 16:08:00,101.1,39.1,29.68,North,9,1.0,0.0,12,0.00,,,0.00,727,WeatherHawk,2013-06-21 23:08:00,
2013-06-21 16:09:00,101.7,37.3,29.68,WNW,302,3.0,8.0,11,0.00,,,0.00,725,WeatherHawk,2013-06-21 23:09:00,
2013-06-21 16:12:00,101.8,37.4,29.68,West,272,8.0,8.0,11,0.00,,,0.00,723,WeatherHawk,2013-06-21 23:12:00,
2013-06-21 16:13:00,101.8,37.4,29.68,NW,311,8.0,8.0,11,0.00,,,0.00,709,WeatherHawk,2013-06-21 23:13:00,
2013-06-21 16:16:00,102.2,37.7,29.68,WNW,303,8.0,8.0,11,0.00,,,0.00,706,WeatherHawk,2013-06-21 23:16:00,
2013-06-21 16:17:00,102.2,37.7,29.68,West,281,7.0,8.0,11,0.00,,,0.00,700,WeatherHawk,2013-06-21 23:17:00,
2013-06-21 16:21:00,101.7,39.5,29.68,SW,223,6.0,10.0,12,0.00,,,0.00,687,WeatherHawk,2013-06-21 23:21:00,
2013-06-21 16:22:00,101.7,39.5,29.68,SW,226,3.0,10.0,12,0.00,,,0.00,685,WeatherHawk,2013-06-21 23:22:00,
2013-06-21 16:23:00,101.8,39.6,29.68,West,272,6.0,10.0,12,0.00,,,0.00,674,WeatherHawk,2013-06-21 23:23:00,
2013-06-21 16:27:00,101.7,39.5,29.68,WSW,256,4.0,10.0,12,0.00,,,0.00,668,WeatherHawk,2013-06-21 23:27:00,
2013-06-21 16:28:00,101.7,39.5,29.68,WSW,244,6.0,0.0,12,0.00,,,0.00,661,WeatherHawk,2013-06-21 23:28:00,
2013-06-21 16:32:00,101.5,39.4,29.68,NNW,332,4.0,9.0,12,0.00,,,0.00,652,WeatherHawk,2013-06-21 23:32:00,
2013-06-21 16:34:00,102.2,37.7,29.67,West,278,7.0,9.0,11,0.00,,,0.00,642,WeatherHawk,2013-06-21 23:34:00,
2013-06-21 16:37:00,102.2,37.7,29.67,WNW,293,9.0,9.0,11,0.00,,,0.00,632,WeatherHawk,2013-06-21 23:37:00,
2013-06-21 16:41:00,101.7,37.3,29.67,SW,219,6.0,10.0,11,0.00,,,0.00,615,WeatherHawk,2013-06-21 23:41:00,
2013-06-21 16:43:00,101.5,39.4,29.67,SW,226,5.0,10.0,12,0.00,,,0.00,608,WeatherHawk,2013-06-21 23:43:00,
2013-06-21 16:44:00,101.5,39.4,29.67,SW,232,4.0,10.0,12,0.00,,,0.00,605,WeatherHawk,2013-06-21 23:44:00,
2013-06-21 16:45:00,101.5,37.1,29.67,SW,221,5.0,10.0,11,0.00,,,0.00,600,WeatherHawk,2013-06-21 23:45:00,
2013-06-21 16:46:00,101.7,39.5,29.67,SW,231,1.0,10.0,12,0.00,,,0.00,593,WeatherHawk,2013-06-21 23:46:00,
2013-06-21 16:50:00,102.0,37.6,29.67,WSW,248,3.0,10.0,11,0.00,,,0.00,581,WeatherHawk,2013-06-21 23:50:00,
2013-06-21 16:52:00,102.0,39.8,29.67,NW,309,3.0,10.0,12,0.00,,,0.00,575,WeatherHawk,2013-06-21 23:52:00,
2013-06-21 16:56:00,101.8,39.6,29.67,WSW,242,2.0,10.0,12,0.00,,,0.00,553,WeatherHawk,2013-06-21 23:56:00,
2013-06-21 16:57:00,101.8,39.6,29.67,WSW,248,1.0,10.0,12,0.00,,,0.00,553,WeatherHawk,2013-06-21 23:57:00,
2013-06-21 16:59:00,102.2,37.7,29.67,NW,311,9.0,9.0,11,0.00,,,0.00,545,WeatherHawk,2013-06-21 23:59:00,
2013-06-21 17:02:00,101.8,37.4,29.67,WNW,297,9.0,9.0,11,0.00,,,0.00,543,WeatherHawk,2013-06-22 00:02:00,
2013-06-21 17:04:00,101.7,37.3,29.66,WNW,286,7.0,8.0,11,0.00,,,0.00,527,WeatherHawk,2013-06-22 00:04:00,
2013-06-21 17:07:00,101.7,39.5,29.66,West,271,1.0,-999.0,12,0.00,,,0.00,509,WeatherHawk,2013-06-22 00:07:00,
2013-06-21 17:08:00,101.8,37.4,29.66,West,262,4.0,0.0,11,0.00,,,0.00,512,WeatherHawk,2013-06-22 00:08:00,
2013-06-21 17:12:00,102.0,37.6,29.66,WNW,287,7.0,12.0,11,0.00,,,0.00,499,WeatherHawk,2013-06-22 00:12:00,
2013-06-21 17:13:00,101.8,37.4,29.66,NNW,346,7.0,12.0,11,0.00,,,0.00,492,WeatherHawk,2013-06-22 00:13:00,
2013-06-21 17:15:00,102.0,37.6,29.66,NW,326,9.0,12.0,11,0.00,,,0.00,480,WeatherHawk,2013-06-22 00:15:00,
2013-06-21 17:16:00,101.8,37.4,29.66,NNW,332,6.0,12.0,11,0.00,,,0.00,480,WeatherHawk,2013-06-22 00:16:00,
2013-06-21 17:17:00,101.8,37.4,29.66,NNW,332,6.0,12.0,11,0.00,,,0.00,480,WeatherHawk,2013-06-22 00:17:00,
2013-06-21 17:19:00,101.8,37.4,29.66,NNW,347,10.0,10.0,11,0.00,,,0.00,469,WeatherHawk,2013-06-22 00:19:00,
2013-06-21 17:21:00,101.3,37.0,29.66,NNW,330,6.0,10.0,11,0.00,,,0.00,457,WeatherHawk,2013-06-22 00:21:00,
2013-06-21 17:22:00,101.3,37.0,29.66,NNW,330,6.0,10.0,11,0.00,,,0.00,457,WeatherHawk,2013-06-22 00:22:00,
2013-06-21 17:23:00,101.7,37.3,29.66,NW,320,9.0,10.0,11,0.00,,,0.00,455,WeatherHawk,2013-06-22 00:23:00,
2013-06-21 17:27:00,101.7,37.3,29.66,NW,321,5.0,10.0,11,0.00,,,0.00,442,WeatherHawk,2013-06-22 00:27:00,
2013-06-21 17:28:00,101.7,37.3,29.66,NNW,340,9.0,10.0,11,0.00,,,0.00,437,WeatherHawk,2013-06-22 00:28:00,
2013-06-21 17:32:00,101.3,37.0,29.65,NNW,345,8.0,10.0,11,0.00,,,0.00,421,WeatherHawk,2013-06-22 00:32:00,
2013-06-21 17:33:00,101.3,39.2,29.65,North,354,6.0,-999.0,12,0.00,,,0.00,425,WeatherHawk,2013-06-22 00:33:00,
2013-06-21 17:36:00,101.8,37.4,29.65,NW,313,7.0,10.0,11,0.00,,,0.00,411,WeatherHawk,2013-06-22 00:36:00,
2013-06-21 17:38:00,101.8,37.4,29.65,NNW,331,9.0,10.0,11,0.00,,,0.00,402,WeatherHawk,2013-06-22 00:38:00,
2013-06-21 17:43:00,101.5,37.1,29.65,WNW,302,6.0,10.0,11,0.00,,,0.00,380,WeatherHawk,2013-06-22 00:43:00,
2013-06-21 17:45:00,101.7,37.3,29.65,NW,320,6.0,10.0,11,0.00,,,0.00,373,WeatherHawk,2013-06-22 00:45:00,
2013-06-21 17:47:00,101.8,37.4,29.65,NNW,329,8.0,10.0,11,0.00,,,0.00,363,WeatherHawk,2013-06-22 00:47:00,
2013-06-21 17:48:00,101.8,37.4,29.65,NNW,329,8.0,10.0,11,0.00,,,0.00,363,WeatherHawk,2013-06-22 00:48:00,
2013-06-21 17:50:00,101.5,37.1,29.65,WNW,297,6.0,0.0,11,0.00,,,0.00,337,WeatherHawk,2013-06-22 00:50:00,
2013-06-21 17:52:00,101.5,37.1,29.65,NW,320,6.0,9.0,11,0.00,,,0.00,344,WeatherHawk,2013-06-22 00:52:00,
2013-06-21 17:53:00,101.5,37.1,29.65,NNW,330,10.0,10.0,11,0.00,,,0.00,336,WeatherHawk,2013-06-22 00:53:00,
2013-06-21 17:56:00,101.5,37.1,29.65,NNW,336,6.0,9.0,11,0.00,,,0.00,326,WeatherHawk,2013-06-22 00:56:00,
2013-06-21 17:57:00,101.3,37.0,29.65,NNW,328,8.0,9.0,11,0.00,,,0.00,321,WeatherHawk,2013-06-22 00:57:00,
2013-06-21 17:58:00,101.3,37.0,29.65,NNW,328,8.0,9.0,11,0.00,,,0.00,321,WeatherHawk,2013-06-22 00:58:00,
2013-06-21 18:03:00,101.3,37.0,29.65,NNW,329,8.0,10.0,11,0.00,,,0.00,311,WeatherHawk,2013-06-22 01:03:00,
2013-06-21 18:08:00,101.5,37.1,29.65,NNW,337,6.0,10.0,11,0.00,,,0.00,283,WeatherHawk,2013-06-22 01:08:00,
2013-06-21 18:11:00,101.1,36.9,29.65,WNW,282,4.0,9.0,11,0.00,,,0.00,269,WeatherHawk,2013-06-22 01:11:00,
2013-06-21 18:13:00,101.1,36.9,29.65,WNW,282,4.0,9.0,11,0.00,,,0.00,269,WeatherHawk,2013-06-22 01:13:00,
2013-06-21 18:14:00,101.3,37.0,29.65,WNW,301,7.0,9.0,11,0.00,,,0.00,259,WeatherHawk,2013-06-22 01:14:00,
2013-06-21 18:15:00,101.3,37.0,29.65,WNW,303,7.0,9.0,11,0.00,,,0.00,252,WeatherHawk,2013-06-22 01:15:00,
2013-06-21 18:18:00,101.5,37.1,29.65,WNW,301,4.0,-999.0,11,0.00,,,0.00,249,WeatherHawk,2013-06-22 01:18:00,
2013-06-21 18:22:00,101.5,37.1,29.65,West,263,6.0,9.0,11,0.00,,,0.00,234,WeatherHawk,2013-06-22 01:22:00,
2013-06-21 18:23:00,101.5,37.1,29.65,West,263,6.0,9.0,11,0.00,,,0.00,234,WeatherHawk,2013-06-22 01:23:00,
2013-06-21 18:26:00,101.3,37.0,29.65,West,273,7.0,9.0,11,0.00,,,0.00,223,WeatherHawk,2013-06-22 01:26:00,
2013-06-21 18:28:00,101.1,36.9,29.65,West,279,6.0,9.0,11,0.00,,,0.00,220,WeatherHawk,2013-06-22 01:28:00,
2013-06-21 18:29:00,101.1,36.9,29.65,WNW,290,6.0,0.0,11,0.00,,,0.00,213,WeatherHawk,2013-06-22 01:29:00,
2013-06-21 18:33:00,101.1,36.9,29.65,WNW,293,6.0,-999.0,11,0.00,,,0.00,201,WeatherHawk,2013-06-22 01:33:00,
2013-06-21 18:34:00,101.1,36.9,29.65,WNW,298,7.0,8.0,11,0.00,,,0.00,195,WeatherHawk,2013-06-22 01:34:00,
2013-06-21 18:38:00,101.1,36.9,29.65,WNW,298,6.0,8.0,11,0.00,,,0.00,191,WeatherHawk,2013-06-22 01:38:00,
2013-06-21 18:40:00,101.1,36.9,29.65,WNW,295,5.0,0.0,11,0.00,,,0.00,174,WeatherHawk,2013-06-22 01:40:00,
2013-06-21 18:41:00,100.9,36.7,29.65,WNW,292,4.0,0.0,11,0.00,,,0.00,172,WeatherHawk,2013-06-22 01:41:00,
2013-06-21 18:43:00,100.9,36.7,29.65,WNW,294,5.0,0.0,11,0.00,,,0.00,165,WeatherHawk,2013-06-22 01:43:00,
2013-06-21 18:48:00,100.9,36.7,29.65,WNW,291,4.0,7.0,11,0.00,,,0.00,153,WeatherHawk,2013-06-22 01:48:00,
2013-06-21 18:49:00,101.1,36.9,29.65,WNW,299,6.0,0.0,11,0.00,,,0.00,148,WeatherHawk,2013-06-22 01:49:00,
2013-06-21 18:51:00,100.9,36.7,29.65,NW,307,5.0,7.0,11,0.00,,,0.00,139,WeatherHawk,2013-06-22 01:51:00,
2013-06-21 18:53:00,100.9,36.7,29.65,NW,307,5.0,-999.0,11,0.00,,,0.00,139,WeatherHawk,2013-06-22 01:53:00,
2013-06-21 18:55:00,100.9,36.7,29.65,NW,307,5.0,7.0,11,0.00,,,0.00,128,WeatherHawk,2013-06-22 01:55:00,
2013-06-21 18:58:00,100.8,36.6,29.65,NW,311,5.0,7.0,11,0.00,,,0.00,123,WeatherHawk,2013-06-22 01:58:00,
2013-06-21 19:01:00,100.6,36.5,29.65,NW,309,6.0,0.0,11,0.00,,,0.00,111,WeatherHawk,2013-06-22 02:01:00,
2013-06-21 19:03:00,100.6,36.5,29.65,NW,311,5.0,-999.0,11,0.00,,,0.00,103,WeatherHawk,2013-06-22 02:03:00,
2013-06-21 19:04:00,100.4,36.3,29.65,NW,315,4.0,6.0,11,0.00,,,0.00,99,WeatherHawk,2013-06-22 02:04:00,
2013-06-21 19:08:00,100.4,36.3,29.65,WNW,303,5.0,-999.0,11,0.00,,,0.00,88,WeatherHawk,2013-06-22 02:08:00,
2013-06-21 19:09:00,100.2,36.2,29.65,NW,316,6.0,7.0,11,0.00,,,0.00,85,WeatherHawk,2013-06-22 02:09:00,
2013-06-21 19:11:00,100.2,38.4,29.65,NW,317,5.0,7.0,12,0.00,,,0.00,82,WeatherHawk,2013-06-22 02:11:00,
2013-06-21 19:13:00,100.2,38.4,29.65,NW,317,5.0,7.0,12,0.00,,,0.00,82,WeatherHawk,2013-06-22 02:13:00,
2013-06-21 19:14:00,100.0,40.3,29.65,NNW,341,5.0,7.0,13,0.00,,,0.00,72,WeatherHawk,2013-06-22 02:14:00,
2013-06-21 19:18:00,99.5,39.9,29.65,NNW,335,5.0,7.0,13,0.00,,,0.00,63,WeatherHawk,2013-06-22 02:18:00,
2013-06-21 19:19:00,99.3,39.8,29.65,NNW,331,6.0,6.0,13,0.00,,,0.00,61,WeatherHawk,2013-06-22 02:19:00,
2013-06-21 19:22:00,99.0,39.5,29.65,NNW,327,5.0,6.0,13,0.00,,,0.00,45,WeatherHawk,2013-06-22 02:22:00,
2013-06-21 19:23:00,99.0,39.5,29.65,NNW,327,5.0,6.0,13,0.00,,,0.00,45,WeatherHawk,2013-06-22 02:23:00,
2013-06-21 19:27:00,98.6,39.2,29.65,NNW,331,4.0,6.0,13,0.00,,,0.00,38,WeatherHawk,2013-06-22 02:27:00,
2013-06-21 19:28:00,98.6,39.2,29.65,NNW,331,4.0,6.0,13,0.00,,,0.00,38,WeatherHawk,2013-06-22 02:28:00,
2013-06-21 19:29:00,98.6,39.2,29.65,NW,322,3.0,0.0,13,0.00,,,0.00,31,WeatherHawk,2013-06-22 02:29:00,
2013-06-21 19:33:00,98.6,39.2,29.65,NW,317,1.0,6.0,13,0.00,,,0.00,22,WeatherHawk,2013-06-22 02:33:00,
2013-06-21 19:37:00,98.2,38.9,29.65,SSW,212,2.0,6.0,13,0.00,,,0.00,15,WeatherHawk,2013-06-22 02:37:00,
2013-06-21 19:38:00,98.2,38.9,29.65,SSW,212,2.0,6.0,13,0.00,,,0.00,15,WeatherHawk,2013-06-22 02:38:00,
2013-06-21 19:42:00,98.2,38.9,29.65,SSW,196,2.0,4.0,13,0.00,,,0.00,12,WeatherHawk,2013-06-22 02:42:00,
2013-06-21 19:45:00,97.7,40.4,29.65,SE,135,6.0,6.0,14,0.00,,,0.00,8,WeatherHawk,2013-06-22 02:45:00,
2013-06-21 19:47:00,97.2,41.8,29.65,SSE,149,5.0,5.0,15,0.00,,,0.00,6,WeatherHawk,2013-06-22 02:47:00,
2013-06-21 19:48:00,97.2,41.8,29.65,SSE,149,5.0,5.0,15,0.00,,,0.00,6,WeatherHawk,2013-06-22 02:48:00,
2013-06-21 19:49:00,96.8,41.5,29.65,SE,130,4.0,7.0,15,0.00,,,0.00,4,WeatherHawk,2013-06-22 02:49:00,
2013-06-21 19:53:00,97.0,41.6,29.65,SE,134,4.0,-999.0,15,0.00,,,0.00,2,WeatherHawk,2013-06-22 02:53:00,
2013-06-21 19:55:00,96.6,41.3,29.66,SSE,156,6.0,7.0,15,0.00,,,0.00,5,WeatherHawk,2013-06-22 02:55:00,
2013-06-21 19:58:00,96.6,41.3,29.66,SSE,156,6.0,7.0,15,0.00,,,0.00,5,WeatherHawk,2013-06-22 02:58:00,
2013-06-21 20:02:00,96.8,44.7,29.66,South,186,9.0,0.0,17,0.00,,,0.00,2,WeatherHawk,2013-06-22 03:02:00,
2013-06-21 20:03:00,96.8,44.7,29.66,South,190,11.0,11.0,17,0.00,,,0.00,2,WeatherHawk,2013-06-22 03:03:00,
2013-06-21 20:07:00,96.3,45.8,29.66,South,187,11.0,11.0,18,0.00,,,0.00,1,WeatherHawk,2013-06-22 03:07:00,
2013-06-21 20:08:00,96.3,45.8,29.66,South,187,11.0,11.0,18,0.00,,,0.00,1,WeatherHawk,2013-06-22 03:08:00,
2013-06-21 20:09:00,96.1,45.7,29.66,SSW,195,11.0,0.0,18,0.00,,,0.00,0,WeatherHawk,2013-06-22 03:09:00,
2013-06-21 20:10:00,95.9,45.5,29.66,SSW,196,10.0,0.0,18,0.00,,,0.00,0,WeatherHawk,2013-06-22 03:10:00,
2013-06-21 20:11:00,95.9,45.5,29.66,SSW,192,9.0,13.0,18,0.00,,,0.00,0,WeatherHawk,2013-06-22 03:11:00,
2013-06-21 20:12:00,95.7,45.4,29.66,SSW,194,11.0,13.0,18,0.00,,,0.00,0,WeatherHawk,2013-06-22 03:12:00,
2013-06-21 20:17:00,95.5,45.2,29.66,SSW,197,9.0,13.0,18,0.00,,,0.00,0,WeatherHawk,2013-06-22 03:17:00,
2013-06-21 20:18:00,95.5,45.2,29.66,SSW,197,9.0,13.0,18,0.00,,,0.00,0,WeatherHawk,2013-06-22 03:18:00,
2013-06-21 20:19:00,95.4,45.1,29.66,SSW,207,10.0,0.0,18,0.00,,,0.00,0,WeatherHawk,2013-06-22 03:19:00,
2013-06-21 20:23:00,95.0,44.8,29.66,SSW,200,9.0,11.0,18,0.00,,,0.00,0,WeatherHawk,2013-06-22 03:23:00,
2013-06-21 20:24:00,94.8,44.7,29.66,SSW,197,8.0,11.0,18,0.00,,,0.00,0,WeatherHawk,2013-06-22 03:24:00,
2013-06-21 20:26:00,94.6,43.0,29.67,SSW,199,9.0,11.0,17,0.00,,,0.00,0,WeatherHawk,2013-06-22 03:26:00,
2013-06-21 20:28:00,94.6,43.0,29.67,SSW,199,9.0,11.0,17,0.00,,,0.00,0,WeatherHawk,2013-06-22 03:28:00,
2013-06-21 20:31:00,94.6,41.4,29.67,SSW,202,9.0,0.0,16,0.00,,,0.00,0,WeatherHawk,2013-06-22 03:31:00,
2013-06-21 20:33:00,94.6,41.4,29.67,SSW,207,8.0,0.0,16,0.00,,,0.00,0,WeatherHawk,2013-06-22 03:33:00,
2013-06-21 20:36:00,94.5,41.3,29.67,SSW,194,6.0,11.0,16,0.00,,,0.00,0,WeatherHawk,2013-06-22 03:36:00,
2013-06-21 20:38:00,94.5,41.3,29.67,SSW,200,7.0,11.0,16,0.00,,,0.00,0,WeatherHawk,2013-06-22 03:38:00,
2013-06-21 20:41:00,94.1,42.6,29.67,SSW,193,7.0,0.0,17,0.00,,,0.00,0,WeatherHawk,2013-06-22 03:41:00,
2013-06-21 20:42:00,94.1,44.1,29.67,South,187,9.0,10.0,18,0.00,,,0.00,0,WeatherHawk,2013-06-22 03:42:00,
2013-06-21 20:43:00,94.1,44.1,29.67,South,187,9.0,-999.0,18,0.00,,,0.00,0,WeatherHawk,2013-06-22 03:43:00,
2013-06-21 20:47:00,93.7,46.6,29.67,South,189,9.0,10.0,20,0.00,,,0.00,0,WeatherHawk,2013-06-22 03:47:00,
2013-06-21 20:48:00,93.7,46.6,29.67,South,190,10.0,0.0,20,0.00,,,0.00,0,WeatherHawk,2013-06-22 03:48:00,
2013-06-21 20:50:00,93.4,47.6,29.67,South,179,9.0,11.0,21,0.00,,,0.00,0,WeatherHawk,2013-06-22 03:50:00,
2013-06-21 20:53:00,93.2,48.7,29.67,South,182,10.0,-999.0,22,0.00,,,0.00,0,WeatherHawk,2013-06-22 03:53:00,
2013-06-21 20:54:00,92.8,48.4,29.68,South,169,6.0,11.0,22,0.00,,,0.00,0,WeatherHawk,2013-06-22 03:54:00,
2013-06-21 20:58:00,92.3,51.3,29.68,South,184,9.0,11.0,25,0.00,,,0.00,0,WeatherHawk,2013-06-22 03:58:00,
2013-06-21 21:01:00,92.1,52.3,29.68,South,185,9.0,11.0,26,0.00,,,0.00,0,WeatherHawk,2013-06-22 04:01:00,
2013-06-21 21:02:00,92.1,53.3,29.68,South,188,8.0,11.0,27,0.00,,,0.00,0,WeatherHawk,2013-06-22 04:02:00,
2013-06-21 21:05:00,92.1,52.3,29.68,South,174,7.0,11.0,26,0.00,,,0.00,0,WeatherHawk,2013-06-22 04:05:00,
2013-06-21 21:07:00,92.1,50.1,29.68,SE,136,6.0,11.0,24,0.00,,,0.00,0,WeatherHawk,2013-06-22 04:07:00,
2013-06-21 21:09:00,91.8,48.6,29.68,SSE,155,4.0,0.0,23,0.00,,,0.00,1,WeatherHawk,2013-06-22 04:09:00,
2013-06-21 21:10:00,91.6,48.5,29.68,SSE,154,4.0,10.0,23,0.00,,,0.00,0,WeatherHawk,2013-06-22 04:10:00,
2013-06-21 21:12:00,91.4,48.3,29.68,South,170,5.0,10.0,23,0.00,,,0.00,0,WeatherHawk,2013-06-22 04:12:00,
2013-06-21 21:14:00,91.2,48.2,29.68,South,173,6.0,10.0,23,0.00,,,0.00,0,WeatherHawk,2013-06-22 04:14:00,
2013-06-21 21:17:00,91.4,47.2,29.68,South,174,7.0,10.0,22,0.00,,,0.00,0,WeatherHawk,2013-06-22 04:17:00,
2013-06-21 21:18:00,91.6,47.3,29.68,South,169,8.0,0.0,22,0.00,,,0.00,0,WeatherHawk,2013-06-22 04:18:00,
2013-06-21 21:20:00,91.4,47.2,29.68,SSE,166,10.0,0.0,22,0.00,,,0.00,0,WeatherHawk,2013-06-22 04:20:00,
2013-06-21 21:21:00,91.2,47.0,29.68,SSE,164,11.0,0.0,22,0.00,,,0.00,0,WeatherHawk,2013-06-22 04:21:00,
2013-06-21 21:22:00,91.2,47.0,29.68,SSE,164,11.0,11.0,22,0.00,,,0.00,0,WeatherHawk,2013-06-22 04:22:00,
2013-06-21 21:24:00,90.9,47.9,29.68,SSE,168,11.0,11.0,23,0.00,,,0.00,0,WeatherHawk,2013-06-22 04:24:00,
2013-06-21 21:27:00,90.9,47.9,29.68,South,176,10.0,10.0,23,0.00,,,0.00,0,WeatherHawk,2013-06-22 04:27:00,
2013-06-21 21:28:00,90.9,47.9,29.69,SSE,163,9.0,0.0,23,0.00,,,0.00,0,WeatherHawk,2013-06-22 04:28:00,
2013-06-21 21:32:00,90.7,47.7,29.69,SSE,151,7.0,12.0,23,0.00,,,0.00,0,WeatherHawk,2013-06-22 04:32:00,
2013-06-21 21:34:00,90.5,47.6,29.69,SE,135,6.0,12.0,23,0.00,,,0.00,0,WeatherHawk,2013-06-22 04:34:00,
2013-06-21 21:36:00,90.1,47.3,29.69,SE,132,5.0,12.0,23,0.00,,,0.00,0,WeatherHawk,2013-06-22 04:36:00,
2013-06-21 21:37:00,90.1,47.3,29.69,SE,132,5.0,-999.0,23,0.00,,,0.00,0,WeatherHawk,2013-06-22 04:37:00,
2013-06-21 21:39:00,89.8,48.1,29.69,SE,146,6.0,0.0,24,0.00,,,0.00,0,WeatherHawk,2013-06-22 04:39:00,
2013-06-21 21:42:00,89.6,48.0,29.69,SE,131,6.0,0.0,24,0.00,,,0.00,0,WeatherHawk,2013-06-22 04:42:00,
2013-06-21 21:44:00,89.4,47.8,29.69,SSE,153,5.0,10.0,24,0.00,,,0.00,0,WeatherHawk,2013-06-22 04:44:00,
2013-06-21 21:47:00,89.2,47.7,29.69,SSE,150,9.0,10.0,24,0.00,,,0.00,0,WeatherHawk,2013-06-22 04:47:00,
2013-06-21 21:48:00,89.4,47.8,29.69,SSE,149,9.0,0.0,24,0.00,,,0.00,0,WeatherHawk,2013-06-22 04:48:00,
2013-06-21 21:52:00,89.1,47.5,29.70,SE,137,6.0,9.0,24,0.00,,,0.00,0,WeatherHawk,2013-06-22 04:52:00,
2013-06-21 21:54:00,88.9,48.5,29.70,SE,133,7.0,9.0,25,0.00,,,0.00,0,WeatherHawk,2013-06-22 04:54:00,
2013-06-21 21:55:00,88.7,48.3,29.70,SE,131,6.0,9.0,25,0.00,,,0.00,0,WeatherHawk,2013-06-22 04:55:00,
2013-06-21 21:57:00,88.5,48.2,29.70,SE,144,8.0,9.0,25,0.00,,,0.00,0,WeatherHawk,2013-06-22 04:57:00,
2013-06-21 22:00:00,88.3,48.0,29.70,SE,138,7.0,0.0,25,0.00,,,0.00,0,WeatherHawk,2013-06-22 05:00:00,
2013-06-21 22:01:00,88.2,48.9,29.70,SE,139,9.0,9.0,26,0.00,,,0.00,0,WeatherHawk,2013-06-22 05:01:00,
2013-06-21 22:03:00,88.0,48.8,29.70,SE,145,8.0,9.0,26,0.00,,,0.00,0,WeatherHawk,2013-06-22 05:03:00,
2013-06-21 22:05:00,87.8,48.6,29.70,SE,144,7.0,9.0,26,0.00,,,0.00,0,WeatherHawk,2013-06-22 05:05:00,
2013-06-21 22:07:00,87.6,48.5,29.70,SE,140,7.0,9.0,26,0.00,,,0.00,0,WeatherHawk,2013-06-22 05:07:00,
2013-06-21 22:12:00,87.1,50.0,29.70,SE,143,9.0,9.0,28,0.00,,,0.00,0,WeatherHawk,2013-06-22 05:12:00,
2013-06-21 22:16:00,86.9,50.8,29.70,SSE,149,10.0,10.0,29,0.00,,,0.00,0,WeatherHawk,2013-06-22 05:16:00,
2013-06-21 22:17:00,86.9,50.8,29.70,SSE,149,10.0,10.0,29,0.00,,,0.00,0,WeatherHawk,2013-06-22 05:17:00,
2013-06-21 22:19:00,86.9,50.8,29.70,SE,144,9.0,12.0,29,0.00,,,0.00,0,WeatherHawk,2013-06-22 05:19:00,
2013-06-21 22:23:00,86.7,51.5,29.70,SE,138,10.0,12.0,30,0.00,,,0.00,0,WeatherHawk,2013-06-22 05:23:00,
2013-06-21 22:24:00,86.7,51.5,29.70,SE,139,10.0,12.0,30,0.00,,,0.00,0,WeatherHawk,2013-06-22 05:24:00,
2013-06-21 22:27:00,86.4,51.2,29.70,SSE,160,6.0,12.0,30,0.00,,,0.00,0,WeatherHawk,2013-06-22 05:27:00,
2013-06-21 22:30:00,86.4,52.1,29.70,SSE,152,7.0,0.0,31,0.00,,,0.00,0,WeatherHawk,2013-06-22 05:30:00,
2013-06-21 22:31:00,86.2,52.0,29.70,SSE,152,7.0,11.0,31,0.00,,,0.00,0,WeatherHawk,2013-06-22 05:31:00,
2013-06-21 22:32:00,86.2,52.0,29.70,SSE,152,7.0,11.0,31,0.00,,,0.00,0,WeatherHawk,2013-06-22 05:32:00,
2013-06-21 22:37:00,85.8,51.7,29.71,SSE,149,5.0,11.0,31,0.00,,,0.00,0,WeatherHawk,2013-06-22 05:37:00,
2013-06-21 22:42:00,85.6,52.4,29.71,ESE,104,4.0,9.0,32,0.00,,,0.00,0,WeatherHawk,2013-06-22 05:42:00,
2013-06-21 22:44:00,85.3,52.0,29.71,ESE,102,4.0,9.0,32,0.00,,,0.00,0,WeatherHawk,2013-06-22 05:44:00,
2013-06-21 22:47:00,84.9,52.6,29.71,ESE,105,5.0,9.0,33,0.00,,,0.00,0,WeatherHawk,2013-06-22 05:47:00,
2013-06-21 22:52:00,84.6,50.6,29.71,SE,129,3.0,0.0,31,0.00,,,0.00,0,WeatherHawk,2013-06-22 05:52:00,
2013-06-21 22:55:00,84.6,49.7,29.71,SE,126,4.0,6.0,30,0.00,,,0.00,0,WeatherHawk,2013-06-22 05:55:00,
2013-06-21 22:58:00,84.4,49.5,29.71,ESE,115,3.0,0.0,30,0.00,,,0.00,0,WeatherHawk,2013-06-22 05:58:00,
2013-06-21 23:00:00,84.4,49.5,29.71,SE,125,3.0,5.0,30,0.00,,,0.00,0,WeatherHawk,2013-06-22 06:00:00,
2013-06-21 23:01:00,84.2,49.4,29.71,SE,129,3.0,5.0,30,0.00,,,0.00,0,WeatherHawk,2013-06-22 06:01:00,
2013-06-21 23:02:00,84.2,49.4,29.71,SE,124,3.0,5.0,30,0.00,,,0.00,0,WeatherHawk,2013-06-22 06:02:00,
2013-06-21 23:06:00,84.0,49.2,29.71,ESE,108,4.0,5.0,30,0.00,,,0.00,0,WeatherHawk,2013-06-22 06:06:00,
2013-06-21 23:07:00,84.0,49.2,29.71,ESE,108,4.0,5.0,30,0.00,,,0.00,0,WeatherHawk,2013-06-22 06:07:00,
2013-06-21 23:12:00,83.7,49.8,29.71,SE,131,3.0,4.0,31,0.00,,,0.00,0,WeatherHawk,2013-06-22 06:12:00,
2013-06-21 23:17:00,83.5,48.8,29.71,SE,130,5.0,-999.0,30,0.00,,,0.00,0,WeatherHawk,2013-06-22 06:17:00,
2013-06-21 23:18:00,83.5,48.8,29.71,ESE,122,5.0,0.0,30,0.00,,,0.00,0,WeatherHawk,2013-06-22 06:18:00,
2013-06-21 23:20:00,83.3,49.5,29.71,ESE,117,4.0,6.0,31,0.00,,,0.00,0,WeatherHawk,2013-06-22 06:20:00,
2013-06-21 23:22:00,83.1,49.3,29.71,ESE,111,4.0,6.0,31,0.00,,,0.00,0,WeatherHawk,2013-06-22 06:22:00,
2013-06-21 23:23:00,82.9,49.2,29.71,ESE,108,3.0,6.0,31,0.00,,,0.00,0,WeatherHawk,2013-06-22 06:23:00,
2013-06-21 23:26:00,82.8,49.0,29.71,ESE,108,3.0,6.0,31,0.00,,,0.00,0,WeatherHawk,2013-06-22 06:26:00,
2013-06-21 23:30:00,82.8,49.0,29.71,East,96,3.0,5.0,31,0.00,,,0.00,0,WeatherHawk,2013-06-22 06:30:00,
2013-06-21 23:31:00,82.6,48.9,29.71,East,88,3.0,5.0,31,0.00,,,0.00,0,WeatherHawk,2013-06-22 06:31:00,
2013-06-21 23:32:00,82.6,48.0,29.71,East,99,4.0,5.0,30,0.00,,,0.00,0,WeatherHawk,2013-06-22 06:32:00,
2013-06-21 23:34:00,82.6,48.0,29.71,East,92,3.0,5.0,30,0.00,,,0.00,0,WeatherHawk,2013-06-22 06:34:00,
2013-06-21 23:36:00,82.4,47.8,29.71,ENE,72,3.0,5.0,30,0.00,,,0.00,0,WeatherHawk,2013-06-22 06:36:00,
2013-06-21 23:37:00,82.4,47.8,29.71,ENE,72,3.0,-999.0,30,0.00,,,0.00,0,WeatherHawk,2013-06-22 06:37:00,
2013-06-21 23:40:00,82.0,48.4,29.71,East,81,3.0,4.0,31,0.00,,,0.00,0,WeatherHawk,2013-06-22 06:40:00,
2013-06-21 23:42:00,81.9,48.2,29.71,East,94,2.0,4.0,31,0.00,,,0.00,0,WeatherHawk,2013-06-22 06:42:00,
2013-06-21 23:43:00,81.7,48.1,29.71,ESE,110,2.0,4.0,31,0.00,,,0.00,0,WeatherHawk,2013-06-22 06:43:00,
2013-06-21 23:45:00,81.7,48.9,29.71,SE,125,3.0,4.0,32,0.00,,,0.00,0,WeatherHawk,2013-06-22 06:45:00,
2013-06-21 23:46:00,81.5,48.8,29.71,SE,129,3.0,4.0,32,0.00,,,0.00,0,WeatherHawk,2013-06-22 06:46:00,
2013-06-21 23:49:00,81.7,48.1,29.71,SE,125,4.0,4.0,31,0.00,,,0.00,0,WeatherHawk,2013-06-22 06:49:00,
2013-06-21 23:51:00,81.7,48.1,29.71,ESE,121,4.0,4.0,31,0.00,,,0.00,1,WeatherHawk,2013-06-22 06:51:00,
2013-06-21 23:55:00,81.5,48.8,29.71,SE,125,4.0,4.0,32,0.00,,,0.00,0,WeatherHawk,2013-06-22 06:55:00,
2013-06-21 23:56:00,81.5,48.8,29.71,ESE,117,5.0,5.0,32,0.00,,,0.00,0,WeatherHawk,2013-06-22 06:56:00,
2013-06-21 23:57:00,81.5,48.8,29.71,ESE,117,5.0,5.0,32,0.00,,,0.00,0,WeatherHawk,2013-06-22 06:57:00,
2013-06-21 23:59:00,81.7,48.1,29.71,ESE,122,4.0,6.0,31,0.00,,,0.00,0,WeatherHawk,2013-06-22 06:59:00,